| time (UTC) | temp F | wind direction | speed knots | gust knots | rain 1hr in | rain 24hr in | rain mn in | humidity % | barometer mb |
| 20260506231549 | 82 | 215 | 0.9 | 5.2 | 0.00 | 0.00 | 0.00 | 71 | 1013.0 |
| 20260506230048 | 83 | 215 | 0.9 | 5.2 | 0.00 | 0.00 | 0.00 | 70 | 1012.9 |
| 20260506224549 | 83 | 98 | 0.9 | 5.2 | 0.00 | 0.00 | 0.00 | 70 | 1013.0 |
| 20260506223055 | 84 | 240 | 0.9 | 4.3 | 0.00 | 0.00 | 0.00 | 69 | 1013.1 |
| 20260506221547 | 84 | 147 | 0.0 | 7.0 | 0.00 | 0.00 | 0.00 | 70 | 1013.2 |
| 20260506220047 | 84 | 124 | 1.7 | 4.3 | 0.00 | 0.00 | 0.00 | 70 | 1013.0 |
| 20260506214546 | 85 | 126 | 0.9 | 5.2 | 0.00 | 0.00 | 0.00 | 70 | 1013.1 |
| 20260506213045 | 85 | 155 | 2.6 | 7.8 | 0.00 | 0.00 | 0.00 | 69 | 1012.9 |
| 20260506211545 | 86 | 203 | 1.7 | 7.8 | 0.00 | 0.00 | 0.00 | 67 | 1013.0 |
| 20260506210044 | 86 | 118 | 1.7 | 7.8 | 0.00 | 0.00 | 0.00 | 66 | 1013.1 |
| 20260506204553 | 86 | 291 | 0.9 | 5.2 | 0.00 | 0.00 | 0.00 | 66 | 1013.2 |
| 20260506203042 | 87 | 75 | 0.9 | 7.0 | 0.00 | 0.00 | 0.00 | 64 | 1013.2 |
| 20260506201541 | 88 | 123 | 0.9 | 6.1 | 0.00 | 0.00 | 0.00 | 63 | 1013.3 |
| 20260506200042 | 89 | 229 | 1.7 | 6.1 | 0.00 | 0.00 | 0.00 | 61 | 1013.5 |
| 20260506194544 | 89 | 196 | 2.6 | 7.8 | 0.00 | 0.00 | 0.00 | 61 | 1013.7 |
| 20260506193035 | 90 | 198 | 0.9 | 6.1 | 0.00 | 0.00 | 0.00 | 60 | 1013.7 |
| 20260506191533 | 90 | 287 | 1.7 | 5.2 | 0.00 | 0.00 | 0.00 | 60 | 1014.1 |
| 20260506190032 | 91 | 208 | 1.7 | 6.1 | 0.00 | 0.00 | 0.00 | 58 | 1014.2 |
| 20260506184529 | 92 | 210 | 0.9 | 4.3 | 0.00 | 0.00 | 0.00 | 49 | 1014.3 |
| 20260506183027 | 91 | 198 | 0.9 | 6.1 | 0.00 | 0.00 | 0.00 | 50 | 1014.5 |
| 20260506181527 | 90 | 131 | 0.9 | 7.0 | 0.00 | 0.00 | 0.00 | 52 | 1014.7 |
| 20260506180023 | 90 | 204 | 0.9 | 5.2 | 0.00 | 0.00 | 0.00 | 52 | 1014.8 |
| 20260506174521 | 90 | 192 | 1.7 | 7.0 | 0.00 | 0.00 | 0.00 | 52 | 1015.0 |
| 20260506173018 | 89 | 211 | 0.9 | 7.8 | 0.00 | 0.00 | 0.00 | 54 | 1015.3 |
| 20260506171525 | 88 | 211 | 2.6 | 7.8 | 0.00 | 0.00 | 0.00 | 55 | 1015.5 |
| 20260506170013 | 88 | 206 | 2.6 | 7.8 | 0.00 | 0.00 | 0.00 | 55 | 1015.5 |
| 20260506164514 | 87 | 208 | 1.7 | 10.4 | 0.00 | 0.00 | 0.00 | 57 | 1015.8 |
| 20260506163011 | 87 | 213 | 0.9 | 3.5 | 0.00 | 0.00 | 0.00 | 59 | 1016.2 |
| 20260506161510 | 86 | 219 | 0.9 | 8.7 | 0.00 | 0.00 | 0.00 | 59 | 1016.2 |
| 20260506160008 | 86 | 200 | 2.6 | 6.1 | 0.00 | 0.00 | 0.00 | 60 | 1016.1 |
| 20260506154504 | 84 | 198 | 2.6 | 7.0 | 0.00 | 0.00 | 0.00 | 62 | 1016.3 |
| 20260506153001 | 84 | 208 | 0.9 | 5.2 | 0.00 | 0.00 | 0.00 | 63 | 1016.2 |
| 20260506151608 | 83 | 206 | 2.6 | 9.6 | 0.00 | 0.00 | 0.00 | 63 | 1016.2 |
| 20260506150056 | 82 | 210 | 1.7 | 5.2 | 0.00 | 0.00 | 0.00 | 64 | 1016.1 |
| 20260506144602 | 81 | 199 | 1.7 | 6.1 | 0.00 | 0.00 | 0.00 | 65 | 1016.1 |
| 20260506143055 | 80 | 192 | 0.9 | 6.1 | 0.00 | 0.00 | 0.00 | 67 | 1016.1 |
| 20260506141548 | 80 | 210 | 2.6 | 7.0 | 0.00 | 0.00 | 0.00 | 67 | 1016.0 |
| 20260506140056 | 79 | 208 | 2.6 | 6.1 | 0.00 | 0.00 | 0.00 | 70 | 1016.0 |
| 20260506134544 | 77 | 206 | 1.7 | 8.7 | 0.00 | 0.00 | 0.00 | 74 | 1016.2 |
| 20260506133041 | 76 | 212 | 1.7 | 5.2 | 0.00 | 0.00 | 0.00 | 78 | 1016.1 |
| 20260506131537 | 75 | 209 | 3.5 | 7.8 | 0.00 | 0.00 | 0.00 | 79 | 1016.0 |
| 20260506130032 | 73 | 233 | 1.7 | 3.5 | 0.00 | 0.00 | 0.00 | 82 | 1016.0 |
| 20260506124527 | 71 | 213 | 0.9 | 5.2 | 0.00 | 0.00 | 0.00 | 84 | 1016.0 |
| 20260506123024 | 70 | 198 | 0.9 | 3.5 | 0.00 | 0.00 | 0.00 | 86 | 1015.8 |
| 20260506121518 | 68 | 195 | 0.0 | 1.7 | 0.00 | 0.00 | 0.00 | 90 | 1015.7 |
| 20260506120014 | 65 | 274 | 0.0 | 0.9 | 0.00 | 0.00 | 0.00 | 94 | 1015.5 |
| 20260506114516 | 62 | 239 | 0.0 | 0.0 | 0.00 | 0.00 | 0.00 | 95 | 1015.5 |
| 20260506113012 | 60 | 240 | 0.0 | 0.0 | 0.00 | 0.00 | 0.00 | 94 | 1015.3 |
| 20260506111510 | 59 | 241 | 0.0 | 0.0 | 0.00 | 0.00 | 0.00 | 94 | 1015.2 |
| 20260506110009 | 59 | 208 | 0.0 | 0.0 | 0.00 | 0.00 | 0.00 | 93 | 1014.9 |
| 20260506104508 | 59 | 208 | 0.0 | 0.0 | 0.00 | 0.00 | 0.00 | 93 | 1014.9 |
| 20260506103013 | 59 | 208 | 0.0 | 0.0 | 0.00 | 0.00 | 0.00 | 93 | 1015.0 |
| 20260506101506 | 59 | 208 | 0.0 | 0.0 | 0.00 | 0.00 | 0.00 | 92 | 1014.9 |
| 20260506100005 | 59 | 208 | 0.0 | 0.0 | 0.00 | 0.00 | 0.00 | 93 | 1014.9 |
| 20260506094513 | 59 | 208 | 0.0 | 0.0 | 0.00 | 0.00 | 0.00 | 93 | 1014.8 |
| 20260506093004 | 60 | 208 | 0.0 | 0.0 | 0.00 | 0.00 | 0.00 | 93 | 1014.7 |
| 20260506091502 | 60 | 208 | 0.0 | 0.0 | 0.00 | 0.00 | 0.00 | 92 | 1014.7 |
| 20260506090001 | 60 | 208 | 0.0 | 0.0 | 0.00 | 0.00 | 0.00 | 93 | 1014.5 |
| 20260506084605 | 60 | 208 | 0.0 | 0.0 | 0.00 | 0.00 | 0.00 | 93 | 1014.7 |
| 20260506083059 | 60 | 208 | 0.0 | 0.0 | 0.00 | 0.00 | 0.00 | 93 | 1014.7 |
| 20260506081558 | 60 | 208 | 0.0 | 0.0 | 0.00 | 0.00 | 0.00 | 93 | 1014.6 |
| 20260506073103 | 60 | 208 | 0.0 | 0.0 | 0.00 | 0.00 | 0.00 | 92 | 1014.3 |
| 20260506071609 | 60 | 208 | 0.0 | 0.0 | 0.00 | 0.00 | 0.00 | 92 | 1014.2 |
| 20260506061545 | 60 | 208 | 0.0 | 0.0 | 0.00 | 0.00 | 0.00 | 90 | 1015.1 |
| 20260506044535 | 61 | 208 | 0.0 | 0.0 | 0.00 | 0.00 | 0.00 | 88 | 1015.7 |
| 20260506043033 | 61 | 208 | 0.0 | 0.0 | 0.00 | 0.00 | 0.00 | 87 | 1015.7 |
| 20260506041542 | 62 | 208 | 0.0 | 0.0 | 0.00 | 0.00 | 0.00 | 85 | 1015.6 |
| 20260506040030 | 63 | 208 | 0.0 | 0.0 | 0.00 | 0.00 | 0.00 | 85 | 1015.7 |
| 20260506034527 | 63 | 208 | 0.0 | 0.0 | 0.00 | 0.00 | 0.00 | 84 | 1015.7 |
| 20260506033031 | 64 | 208 | 0.0 | 0.0 | 0.00 | 0.00 | 0.00 | 83 | 1015.8 |
| 20260506031528 | 65 | 208 | 0.0 | 0.0 | 0.00 | 0.00 | 0.00 | 82 | 1015.8 |
| 20260506030031 | 65 | 208 | 0.0 | 0.0 | 0.00 | 0.00 | 0.00 | 82 | 1015.7 |
| 20260506024525 | 66 | 208 | 0.0 | 0.0 | 0.00 | 0.00 | 0.00 | 81 | 1015.6 |
| 20260506023025 | 67 | 208 | 0.0 | 0.0 | 0.00 | 0.00 | 0.00 | 80 | 1015.3 |
| 20260506021524 | 67 | 208 | 0.0 | 0.0 | 0.00 | 0.00 | 0.00 | 79 | 1015.2 |
| 20260506020025 | 68 | 208 | 0.0 | 0.0 | 0.00 | 0.00 | 0.00 | 77 | 1015.1 |
| 20260506014533 | 69 | 208 | 0.0 | 0.0 | 0.00 | 0.00 | 0.00 | 76 | 1014.9 |
| 20260506013028 | 70 | 207 | 0.0 | 0.9 | 0.00 | 0.00 | 0.00 | 74 | 1014.9 |
| 20260506011523 | 71 | 207 | 0.0 | 1.7 | 0.00 | 0.00 | 0.00 | 73 | 1014.9 |
| 20260506010027 | 71 | 290 | 0.0 | 0.9 | 0.00 | 0.00 | 0.00 | 71 | 1014.8 |
| 20260506004535 | 72 | 141 | 0.0 | 0.9 | 0.00 | 0.00 | 0.00 | 71 | 1014.7 |
| 20260506003021 | 72 | 227 | 0.0 | 0.9 | 0.00 | 0.00 | 0.00 | 70 | 1014.6 |
| 20260506001521 | 73 | 237 | 0.0 | 0.9 | 0.00 | 0.00 | 0.00 | 69 | 1014.6 |
| 20260506000023 | 73 | 255 | 0.0 | 1.7 | 0.00 | 0.00 | 0.00 | 69 | 1014.5 |
| 20260505234521 | 74 | 258 | 0.0 | 4.3 | 0.00 | 0.00 | 0.00 | 69 | 1014.6 |
| 20260505233019 | 74 | 210 | 0.9 | 8.7 | 0.00 | 0.00 | 0.00 | 67 | 1014.6 |